Theta_e
346 346 347 346 346 345 345 345 346 346 346 346 346 347 346 344 347 345 346 346 345 345 344 342 341 341 340 337 334 331 329 328 326 326 328 328 327 332 336 331 327 327 331
341 344 346 347 344 343 345 346 345 345 346 347 346 344 345 346 346 346 347 345 346 345 345 344 343 340 340 342 343 339 337 336 334 334 331 329 327 333 329 332 335 335 331
344 343 346 345 346 343 346 347 347 346 345 343 345 346 345 345 345 344 345 345 344 347 346 346 345 342 340 340 342 342 342 339 339 337 337 336 334 330 328 327 329 333 337
341 345 345 344 345 347 346 344 347 347 347 343 343 345 345 344 342 343 344 344 345 345 344 345 346 346 345 343 340 341 341 342 341 341 339 338 338 338 337 334 334 332 335
345 343 346 344 345 345 345 342 345 347 346 341 342 346 344 343 343 344 343 345 345 345 345 344 345 346 347 345 338 341 341 341 341 341 342 341 341 340 338 339 340 340 339
342 342 342 346 340 344 343 346 345 345 342 341 346 346 346 344 345 344 345 346 346 346 346 346 345 345 346 345 342 339 341 341 341 341 341 340 340 341 339 340 340 339 340
346 342 339 337 340 343 344 341 342 345 344 342 342 344 345 345 344 345 343 345 343 344 347 341 343 343 345 344 340 340 339 343 343 342 341 341 341 342 342 341 341 341 340
343 343 341 341 339 336 337 338 343 339 341 345 343 344 343 342 343 344 342 341 342 344 346 345 344 343 344 345 343 340 342 344 345 344 342 342 341 341 341 341 341 342 341
343 342 342 343 340 338 339 339 336 337 340 341 340 342 343 342 341 341 340 341 342 346 346 344 343 344 344 343 342 340 340 342 343 343 340 342 341 341 341 341 340 340 340
342 343 344 343 340 340 341 340 339 340 340 340 340 339 341 343 341 339 339 343 343 339 336 340 342 342 343 342 342 340 339 340 341 342 341 341 340 341 341 340 340 339 340
338 343 342 343 341 343 341 339 341 341 340 341 341 341 342 343 343 341 340 339 334 336 336 335 341 341 340 340 341 342 342 341 341 340 341 341 341 341 340 339 337 339 339
336 340 341 341 341 340 341 341 342 343 343 344 345 343 342 344 343 342 339 339 340 340 341 341 341 340 340 340 342 342 341 341 341 341 341 340 340 340 338 337 337 337 337
342 338 336 335 331 330 334 337 338 336 335 336 341 343 343 343 342 340 339 341 344 344 341 341 340 340 340 340 341 340 339 340 340 340 339 339 338 338 338 337 336 337 337
344 344 340 339 338 332 330 334 336 335 334 335 333 334 337 336 338 341 342 344 344 342 341 341 339 341 341 339 339 338 338 338 338 338 338 338 338 338 337 335 334 337 336
344 343 341 339 341 340 338 338 334 335 338 338 338 339 340 340 340 339 339 340 341 341 342 340 338 340 339 340 339 337 336 336 337 338 338 337 336 337 334 333 336 336 336
343 344 344 342 341 340 339 339 340 338 336 335 333 333 331 332 334 339 340 337 340 342 343 340 339 338 339 338 337 336 338 336 336 336 336 336 335 334 332 331 335 335 335
343 341 342 338 339 341 339 339 340 339 339 339 338 339 340 340 339 340 339 339 341 342 343 341 340 337 337 337 336 336 336 335 335 334 334 332 331 330 329 328 328 328 328
338 336 340 339 340 340 338 339 338 339 341 341 340 339 339 339 339 340 341 340 340 340 342 342 340 337 336 336 336 335 334 334 333 333 332 330 329 328 327 326 325 325 325
339 339 342 342 338 339 339 339 338 336 339 340 338 338 338 339 340 339 340 340 340 341 341 342 341 337 336 335 334 333 333 332 331 331 330 329 328 326 325 324 323 323 322
341 343 344 342 341 340 339 339 338 338 333 336 338 337 337 337 337 337 338 338 341 341 342 340 341 337 336 335 334 334 332 332 331 330 329 327 326 325 324 323 322 321 319
342 342 342 341 341 340 339 339 338 339 334 335 335 337 335 337 336 327 332 340 341 341 341 341 340 338 336 335 333 333 332 332 331 330 329 327 327 326 324 323 320 318 313
342 343 342 342 340 340 339 339 339 338 336 337 336 336 336 335 332 327 333 338 339 340 338 338 339 338 338 337 335 334 333 331 331 331 330 328 327 326 325 323 319 313 312
343 342 342 341 341 340 340 339 337 337 334 336 335 335 333 335 334 333 328 335 337 337 336 337 336 338 338 338 336 334 333 332 332 331 329 329 328 327 325 322 320 315 313
343 343 342 342 341 340 339 337 336 335 331 336 335 335 335 334 334 334 332 331 330 334 335 334 334 334 333 334 336 336 334 332 331 330 329 329 328 328 325 323 321 320 320
343 343 343 342 341 341 337 335 335 336 333 332 333 331 334 334 334 333 331 335 335 330 328 330 331 332 332 333 333 333 334 331 330 330 330 329 329 326 324 325 323 322 321
344 343 343 342 340 339 335 333 333 335 332 330 329 332 332 332 330 329 327 329 332 331 331 331 326 327 326 330 330 331 331 331 331 330 329 329 329 326 326 326 325 323 322
Wind_Speed
14 16 13 9 7 8 7 7 9 8 9 10 10 12 12 10 11 13 10 9 9 8 6 7 7 7 9 8 8 9 9 8 10 9 10 9 8 8 8 7 6 6 6
14 16 14 13 8 8 8 9 9 9 7 11 13 11 10 9 7 7 9 9 7 7 9 8 6 8 8 11 11 12 11 11 12 10 12 9 10 10 10 9 8 7 7
17 18 15 12 10 12 11 12 11 11 9 11 13 11 8 9 13 15 16 10 11 11 10 11 9 8 9 8 10 12 13 13 14 13 14 13 12 12 11 11 10 9 10
21 19 19 16 16 16 17 13 12 12 9 10 13 10 9 5 7 10 10 13 16 18 19 19 15 12 12 11 12 13 14 16 15 14 15 14 13 14 14 14 12 12 10
19 21 22 21 19 17 16 14 14 13 10 10 12 13 11 11 10 10 12 14 16 16 19 18 17 19 18 13 18 17 19 17 17 15 14 13 13 15 15 16 14 14 14
24 24 20 22 18 23 22 18 16 16 14 12 15 15 12 14 15 17 16 18 19 18 22 21 17 21 17 22 20 19 22 20 18 18 18 16 13 13 14 16 15 16 17
26 27 28 26 25 24 19 17 16 14 16 16 18 18 17 17 15 14 17 21 22 22 24 21 18 17 15 19 20 25 22 21 17 19 19 18 15 15 15 15 15 16 18
20 28 29 24 28 24 23 22 19 18 17 16 18 16 16 18 18 16 18 19 17 19 17 9 16 14 15 17 13 11 16 15 18 17 21 19 17 17 16 16 15 15 15
8 18 22 22 25 24 20 17 21 21 21 19 17 15 6 10 12 14 12 13 11 7 9 13 13 13 13 15 15 14 15 15 15 17 20 20 18 18 15 15 12 12 12
3 8 15 16 17 20 21 19 18 18 19 21 17 21 22 18 10 6 7 5 8 5 2 11 10 10 12 12 13 15 15 15 15 17 16 17 16 14 13 11 11 11 11
4 4 7 11 11 15 17 17 16 17 19 20 19 22 23 20 20 18 13 8 6 6 11 11 11 10 10 9 9 9 10 13 13 12 12 13 12 11 10 8 5 3 8
2 3 6 7 7 8 12 14 13 12 11 13 15 17 20 19 17 16 15 10 12 16 15 11 12 11 10 7 6 5 6 6 8 9 9 9 9 9 8 6 5 6 7
3 1 3 3 4 3 4 9 10 8 6 8 8 7 13 15 15 12 14 10 10 13 12 9 8 6 7 5 4 4 5 6 8 8 8 7 7 8 8 6 6 8 9
4 4 2 3 3 6 6 5 6 6 5 8 6 5 11 12 13 14 15 14 11 12 15 11 4 7 7 5 4 3 5 7 8 8 8 9 10 6 5 6 8 9 10
3 4 3 1 2 4 4 6 7 6 6 5 6 7 6 7 11 14 17 15 18 16 17 12 8 11 10 7 4 5 6 7 8 9 9 7 5 4 5 7 7 8 10
9 6 5 4 4 4 3 4 6 8 8 8 7 4 3 4 8 12 13 13 16 15 16 14 15 14 12 9 5 6 8 9 9 9 8 7 6 6 6 6 9 9 10
13 15 13 11 7 3 1 1 2 3 2 4 3 7 9 8 10 12 13 13 15 15 21 16 13 14 13 10 7 7 8 7 7 7 8 8 8 7 7 7 8 9 9
11 10 9 11 8 5 5 6 3 6 3 4 3 7 7 9 12 9 10 11 14 17 25 20 14 18 16 13 10 8 10 9 8 7 8 9 8 7 7 7 7 8 9
9 11 11 8 6 10 7 5 5 7 5 6 5 6 9 9 8 10 10 10 12 18 23 20 18 18 19 17 14 12 11 9 8 9 9 9 8 8 7 7 8 10 10
10 10 7 7 7 7 8 8 7 7 8 10 6 7 6 6 7 10 10 9 9 16 13 10 14 17 20 18 16 16 16 10 8 10 11 11 10 9 8 9 10 11 11
13 11 12 11 9 8 11 7 12 10 4 7 8 8 4 6 9 8 7 5 5 5 4 7 11 18 21 20 21 20 17 11 11 10 12 12 11 11 10 11 11 11 11
13 16 16 15 13 13 13 11 13 12 8 8 5 4 4 2 2 2 3 5 4 6 7 7 10 15 18 20 20 21 19 19 18 17 16 15 15 13 12 11 11 11 11
17 18 16 16 12 12 11 10 14 16 12 11 9 6 4 3 3 3 1 6 7 7 6 5 8 11 13 15 19 21 23 22 20 15 14 14 14 13 11 9 7 11 11
20 19 18 16 15 15 11 10 12 13 14 15 12 10 5 4 1 1 2 1 2 6 6 6 5 7 8 11 14 18 22 21 21 18 15 15 13 16 14 11 9 8 8
22 19 17 16 17 14 9 9 12 14 15 18 16 13 8 6 5 4 5 5 2 2 2 5 8 8 10 12 14 18 22 22 25 21 21 19 19 21 20 15 14 16 16
25 21 18 18 16 11 8 8 9 13 17 16 16 14 11 8 8 6 10 7 6 4 3 1 1 6 7 8 8 9 15 21 22 23 23 24 20 20 22 23 22 22 22
Wind_Direction
218 214 201 204 207 181 200 214 218 192 184 193 221 249 238 216 259 239 248 251 272 263 276 274 284 293 266 250 238 236 239 238 244 238 244 227 230 228 227 224 227 230 232
221 215 207 200 194 208 213 215 209 216 222 230 218 239 219 235 225 222 244 287 255 272 263 269 267 268 280 262 258 251 247 250 252 245 247 241 243 238 241 232 237 247 252
212 215 211 213 197 221 223 217 207 213 220 226 207 214 216 221 235 232 248 261 266 264 278 271 278 270 253 260 262 269 262 261 256 253 249 247 248 248 249 248 250 251 260
215 211 212 217 223 225 216 214 222 221 217 223 213 203 215 216 218 245 256 264 267 267 276 277 278 262 251 253 252 255 261 259 262 259 253 251 250 254 254 252 255 254 262
231 223 213 220 226 215 221 212 223 238 246 249 219 207 212 236 245 247 250 260 264 266 272 272 268 265 268 263 280 266 265 251 255 259 255 252 251 251 255 255 257 259 263
239 241 222 224 212 215 221 217 222 240 244 231 220 219 227 241 249 252 245 261 260 270 261 256 250 263 264 260 277 276 250 251 246 249 249 251 253 255 261 260 258 258 260
244 242 239 228 225 225 222 228 237 232 240 228 239 237 230 239 248 254 249 268 263 262 265 261 276 264 255 259 272 272 241 237 238 244 247 249 254 257 259 265 261 262 261
247 234 235 235 232 233 231 232 238 250 257 250 250 251 252 256 259 260 268 268 264 268 268 251 251 271 256 262 260 258 243 239 239 254 250 247 249 256 262 267 268 266 259
260 233 235 237 232 235 237 242 235 247 246 242 247 243 225 244 246 248 269 267 266 243 254 265 256 254 261 267 264 247 243 248 246 258 239 244 246 251 255 264 261 267 255
315 229 224 225 222 234 238 236 243 249 251 251 246 244 245 252 245 254 259 248 256 200 313 291 266 264 268 262 254 255 252 245 241 240 238 238 237 242 251 250 264 263 246
334 225 208 220 217 229 221 232 248 247 249 254 254 251 250 246 247 252 259 266 261 268 268 300 282 276 282 278 273 249 238 231 230 232 228 232 233 233 237 241 233 267 180
355 119 167 189 197 210 227 239 242 240 247 254 247 247 239 228 238 247 248 268 271 267 267 277 277 278 277 270 250 233 226 210 209 216 215 216 220 220 214 195 182 167 157
293 161 154 185 219 245 225 233 236 241 252 249 226 222 236 242 245 245 251 240 238 253 270 271 271 255 256 250 239 220 212 194 194 201 209 200 192 179 174 177 181 160 156
241 200 204 155 222 224 236 238 216 241 230 253 250 244 255 254 250 246 254 252 233 256 275 273 268 193 213 232 232 188 176 171 175 175 168 160 158 170 195 195 182 171 170
175 148 128 105 333 296 239 237 240 237 238 247 249 231 235 259 261 261 257 254 253 244 257 256 222 203 213 214 233 213 198 175 162 160 164 180 192 203 182 164 168 168 169
216 173 166 216 270 301 276 253 238 234 241 233 229 243 233 248 270 268 262 255 248 247 243 244 228 213 207 223 234 191 182 178 178 184 185 200 191 179 176 173 157 164 173
210 224 225 208 220 200 141 295 295 278 275 271 285 265 265 272 274 270 270 260 249 243 241 236 226 216 205 211 207 183 178 185 195 189 186 184 177 174 180 193 203 208 214
223 200 187 185 197 192 202 204 258 264 277 264 288 286 281 271 274 280 285 271 255 243 235 226 216 209 201 203 202 192 190 191 200 200 192 186 178 180 192 200 209 218 224
214 185 187 190 201 185 212 213 258 228 222 242 254 262 273 274 274 283 277 270 257 243 234 232 212 210 200 196 196 198 218 202 194 198 196 194 190 197 210 220 224 227 231
216 185 186 188 200 211 214 214 231 253 240 220 229 263 255 260 279 288 286 278 254 242 219 218 217 206 202 199 201 207 213 216 215 209 208 208 207 212 222 229 234 235 237
216 200 208 214 218 230 247 243 223 236 210 189 201 229 265 292 298 291 264 259 247 245 220 213 210 203 201 202 205 210 221 218 218 218 219 225 223 230 237 239 240 240 239
210 215 216 223 238 240 243 241 232 221 216 213 182 212 246 292 27 326 233 200 224 231 248 248 218 213 215 216 216 216 220 217 222 224 221 228 228 236 242 251 249 242 241
222 233 234 228 235 246 252 257 221 226 223 204 197 194 208 184 257 23 190 204 217 230 232 229 232 240 239 238 226 219 221 230 237 238 232 225 228 236 232 226 247 247 248
223 233 231 222 227 242 256 240 229 227 205 203 199 179 213 224 200 95 91 103 244 218 226 222 228 230 243 242 238 238 230 229 233 237 244 245 258 250 232 232 232 241 272
226 224 229 233 230 237 246 248 230 223 206 202 202 204 205 228 193 208 221 179 268 29 209 234 236 229 234 240 232 231 230 228 235 236 242 242 255 251 243 246 257 255 256
221 218 225 234 237 232 230 239 220 207 200 201 196 198 198 212 222 213 209 220 206 207 222 228 281 246 250 234 238 233 231 231 238 241 239 241 248 238 242 245 245 251 254